Weather History for KMLC - December, 2012

Change the Weather History Date:

Sunday, December 9, 2012

  Actual Average Record
Temperature  
Mean Temperature 49 °F -  
Max Temperature 63 °F 53 °F 76 °F (1993)
Min Temperature 33 °F 34 °F 1 °F (2005)
Degree Days  
Heating Degree Days 16    
Moisture  
Dew Point 45 °F    
Average Humidity 73    
Maximum Humidity 94    
Minimum Humidity 43    
Precipitation  
Precipitation 0.00 in - - ()
Sea Level Pressure  
Sea Level Pressure 29.85 in    
Wind  
Wind Speed 7 mph (NW)    
Max Wind Speed 20 mph    
Max Gust Speed 29 mph    
Visibility 7 miles    
Events      
Averages and records for this station are not official NWS values.
T = Trace of Precipitation, MM = Missing Value Source: NWS Daily Summary

Daily Weather History Graph

Daily Weather History Graph

Search for Another Location

Airport or City:

Trip Planner

Search our weather history database for the weather conditions in past years. The results will help you decide how hot, cold, wet, or windy it might be!

Date:

Astronomy

Dec. 09, 2012 Rise Set
Actual Time 7:19 AM CST 5:11 PM CST
Civil Twilight 6:51 AM CST 5:39 PM CST
Nautical Twilight 6:20 AM CST 6:11 PM CST
Astronomical Twilight 5:49 AM CST 6:42 PM CST
Moon 3:00 AM CST (12/9) 2:13 PM CST (12/9)
Length of Visible Light 10h 48m
Length of Day
9h 52m
Waning Crescent, 18% of the Moon is Illuminated
Dec 9
Waning Crescent
Dec 13
New
Dec 19
First Quarter
Dec 28
Full
Jan 4
Last Quarter

Hourly Weather History & Observations

Time (CST) Temp. Windchill Dew Point Humidity Pressure Visibility Wind Dir Wind Speed Gust Speed Precip Events Conditions
12:49 AM 53.6 °F - 46.4 °F 77% 29.79 in 10.0 mi Calm Calm - N/A   Overcast
12:53 AM 53.1 °F - 46.9 °F 80% 29.78 in 10.0 mi Calm Calm - N/A   Overcast
1:53 AM 57.0 °F - 50.0 °F 77% 29.75 in 10.0 mi Calm Calm - N/A   Mostly Cloudy
2:19 AM 57.2 °F - 48.2 °F 72% 29.75 in 10.0 mi SSE 3.5 mph - N/A   Overcast
2:53 AM 57.0 °F - 50.0 °F 77% 29.73 in 10.0 mi Calm Calm - N/A   Mostly Cloudy
3:53 AM 62.1 °F - 59.0 °F 90% 29.72 in 6.0 mi South 8.1 mph - N/A   Scattered Clouds
4:53 AM 63.0 °F - 60.1 °F 90% 29.71 in 6.0 mi South 9.2 mph - N/A   Mostly Cloudy
5:53 AM 62.1 °F - 59.0 °F 90% 29.72 in 6.0 mi South 8.1 mph - N/A   Mostly Cloudy
6:53 AM 60.1 °F - 57.9 °F 93% 29.76 in 4.0 mi WNW 3.5 mph - N/A   Scattered Clouds
7:14 AM 60.8 °F - 57.2 °F 88% 29.78 in 5.0 mi West 6.9 mph - N/A   Mostly Cloudy
7:28 AM 60.8 °F - 59.0 °F 94% 29.78 in 5.0 mi West 8.1 mph - N/A   Overcast
7:53 AM 61.0 °F - 57.9 °F 90% 29.78 in 3.0 mi WSW 8.1 mph - N/A   Overcast
8:11 AM 60.8 °F - 57.2 °F 88% 29.79 in 3.0 mi WSW 8.1 mph - N/A   Overcast
8:21 AM 60.8 °F - 57.2 °F 88% 29.79 in 4.0 mi West 4.6 mph - N/A   Overcast
8:53 AM 57.9 °F - 54.0 °F 87% 29.80 in 4.0 mi NW 11.5 mph - N/A   Overcast
9:30 AM 57.2 °F - 51.8 °F 82% 29.82 in 6.0 mi WNW 4.6 mph - N/A   Haze
9:53 AM 59.0 °F - 52.0 °F 78% 29.82 in 7.0 mi WNW 5.8 mph - N/A   Overcast
10:23 AM 57.2 °F - 50.0 °F 77% 29.85 in 4.0 mi NNW 12.7 mph - N/A   Haze
10:53 AM 55.9 °F - 50.0 °F 80% 29.85 in 4.0 mi NNW 11.5 mph - N/A   Haze
11:53 AM 55.0 °F - 46.0 °F 72% 29.85 in 5.0 mi North 15.0 mph - N/A   Haze
12:53 PM 52.0 °F - 45.0 °F 77% 29.86 in 5.0 mi NNW 13.8 mph 20.7 mph N/A   Haze
1:53 PM 53.1 °F - 44.1 °F 71% 29.86 in 6.0 mi NNW 16.1 mph - N/A   Haze
2:53 PM 53.1 °F - 42.1 °F 66% 29.89 in 10.0 mi North 15.0 mph 20.7 mph N/A   Overcast
3:53 PM 52.0 °F - 41.0 °F 66% 29.91 in 10.0 mi North 15.0 mph - N/A   Overcast
4:53 PM 52.0 °F - 39.0 °F 61% 29.92 in 10.0 mi North 16.1 mph - N/A   Overcast
5:14 PM 51.8 °F - 37.4 °F 58% 29.93 in 10.0 mi North 15.0 mph 24.2 mph N/A   Overcast
5:53 PM 48.9 °F - 36.0 °F 61% 29.94 in 10.0 mi NNW 18.4 mph - N/A   Overcast
6:53 PM 48.0 °F - 33.1 °F 56% 29.96 in 10.0 mi North 16.1 mph 24.2 mph N/A   Overcast
7:53 PM 45.0 °F 37.1 °F 26.1 °F 48% 29.98 in 10.0 mi North 19.6 mph 28.8 mph N/A   Overcast
8:53 PM 43.0 °F 35.4 °F 21.9 °F 43% 30.01 in 10.0 mi North 16.1 mph 26.5 mph N/A   Overcast
9:53 PM 39.9 °F 30.5 °F 19.0 °F 43% 30.04 in 10.0 mi NNW 19.6 mph 26.5 mph N/A   Overcast
10:53 PM 35.1 °F 25.2 °F 16.0 °F 46% 30.09 in 10.0 mi NNW 16.1 mph 23.0 mph N/A   Scattered Clouds
11:53 PM 33.1 °F 23.0 °F 15.1 °F 48% 30.09 in 10.0 mi NNW 15.0 mph 21.9 mph N/A   Partly Cloudy